Regional Weather Roundup
Issued by NWS

Home | Current Version | Previous Version | Graphics & Text | Print | Product List | Glossary On
Versions: 1 2 3 4 5 6 7 8 9 10 11 12 13 14 15 16 17 18 19 20 21 22 23 24 25 26 27 28 29 30 31 32 33 34 35 36 37 38 39 40 41 42 43 44 45 46 47 48 49 50
688
ASUS45 KTFX 281510
RWRMT
MONTANA REGIONAL WEATHER ROUNDUP
NATIONAL WEATHER SERVICE GREAT FALLS MT
900 AM MDT THU APR 28 2016

NOTE: "FAIR" INDICATES FEW OR NO CLOUDS BELOW 12000 FEET WITH NO
SIGNIFICANT WEATHER AND/OR OBSTRUCTIONS TO VISIBILITY.

MTZ001>007-043-281600-
WEST OF THE DIVIDE

CITY           SKY/WX    TMP DP  RH WIND       PRES   REMARKS
KALISPELL      CLOUDY    48  29  47 CALM      30.04R
MISSOULA       CLOUDY    45  29  53 SE13G22   30.03R
BUTTE          FLURRIES  33  28  81 CALM      29.98S
MULLAN PASS      N/A     33  28  81 CALM      29.98R
ANACONDA         N/A     36  27  69 N15G21    30.00S WCI  26
DEER LODGE       N/A     36  28  75 N9        30.04S WCI  29
EUREKA           N/A     43  36  75 CALM      30.07R
HAMILTON         N/A     43  27  52 N14       29.99S
LIBBY            N/A     43  36  75 CALM      30.07R
PLAINS           N/A     43  36  76 CALM      30.03R
$$

MTZ008-052>055-281600-
SOUTHWEST MONTANA

CITY           SKY/WX    TMP DP  RH WIND       PRES   REMARKS
BOZEMAN        CLOUDY    36  33  89 SW5       30.01S
DILLON         CLOUDY    35  29  78 NE17      29.95S HAZE    WCI  25
ENNIS          CLOUDY    34  30  86 N20       29.99F WCI  22
THREE FORKS      N/A     38  38 100 MISG      30.01S
TWIN BRIDGES     N/A     37  28  70 N22       29.95S WCI  26
$$

MTZ009-010-012-014-046-048-049-054-281600-
EAST SLOPES AND CENTRAL MONTANA

CITY           SKY/WX    TMP DP  RH WIND       PRES   REMARKS
CUT BANK       CLOUDY    34  32  92 E7        30.15R WCI  28
GREAT FALLS    LGT SNOW  33  32  96 NE10      30.10S FOG     WCI  25
MALMSTROM AFB  FLURRIES  34  34 100 NE12      30.11S WCI  25
HELENA         CLOUDY    38  32  79 N6        30.06R
CHOTEAU          N/A     32  32 100 NE10      30.13R FOG     WCI  24
CONRAD           N/A     34  34 100 N7        30.15R WCI  28
$$

MTZ011-013-016-021-045-047-050-051-281600-
NORTH CENTRAL MONTANA

CITY           SKY/WX    TMP DP  RH WIND       PRES   REMARKS
HAVRE          CLOUDY    42  34  73 N6        30.17S
LEWISTOWN      FLURRIES  34  29  82 E8        30.10R WCI  27
N BAR RANCH    CLOUDY    30  28  93 CALM      30.11S
CHINOOK          N/A     43  36  75 NW7       30.17S
$$

MTZ017>020-022>027-061-062-281600-
NORTHEAST MONTANA

CITY           SKY/WX    TMP DP  RH WIND       PRES   REMARKS
GLASGOW        PTSUNNY   40  31  70 E8        30.15R
JORDAN           N/A     38  36  92 NW10      30.13R WCI  31
SIDNEY         CLOUDY    43  28  56 NE9       30.14R
WOLF POINT     CLOUDY    44  30  57 E10       30.15S
PLENTYWOOD       N/A     43  25  49 NE12      30.16R
POPLAR           N/A     41  27  56 NE9       30.16R
SCOBEY           N/A     41  20  43 NE2       30.14R
$$

MTZ028>42-056>058-281600-
SOUTHCENTRAL AND SOUTHEAST MONTANA

CITY           SKY/WX    TMP DP  RH WIND       PRES   REMARKS
BAKER          CLOUDY    36  33  89 N8        30.08S WCI  30
BILLINGS       SNOW      31  31 100 NE9       30.08R VSB 1/2 WCI  23
LIVINGSTON     FLURRIES  31  27  85 E14       30.03R WCI  21
MILES CITY     CLOUDY    38  34  85 N10       30.10S WCI  31
EKALAKA          N/A     32  30  92 N7        30.02S WCI  26
FORSYTH          N/A     37  37 100 N3        30.12S
LAUREL           N/A     32  27  82 N2        30.05S VSB 1
ROUNDUP          N/A     33  30  89 CALM      30.01S
$$

REGIONAL REPORTS...DAKOTAS

CITY           SKY/WX    TMP DP  RH WIND       PRES   REMARKS
WILLISTON      CLOUDY    46  23  40 E13       30.15R
MINOT          CLOUDY    46  20  35 NE10      30.15R
DICKINSON      CLOUDY    36  30  79 E6        30.07R WCI  31
BEACH          PTSUNNY   37  32  81 E8        30.12R WCI  31
CROSBY           N/A     45  23  42 E8        30.20S
TIOGA            N/A     41  19  42 E13       30.20R
WATFORD CITY     N/A     41  25  52 E9        30.14R
BISMARCK       CLOUDY    43  34  70 N3        30.11R
GRAND FORKS    CLOUDY    49  22  34 E13       30.13R
FARGO          CLOUDY    47  20  34 NE6       30.07R
BUFFALO SD       N/A     35  32  88 NE10      29.99R WCI  27
RAPID CITY     CLOUDY    33  32  96 N8        30.03S FOG     WCI  26
$$

REGIONAL REPORTS...WYOMING/IDAHO/WASHINGTON

CITY           SKY/WX    TMP DP  RH WIND       PRES   REMARKS
GILLETTE       CLOUDY    31  30  96 N12       30.01S WCI  22
SHERIDAN       CLOUDY    34  30  85 NE3       30.05S
BUFFALO WY     CLOUDY    31  28  89 N9        30.02R WCI  23
CODY           CLOUDY    30  28  93 N13       30.00R WCI  20
YELLOWSTONE LA   N/A     29  22  75 CALM      29.90S
IDAHO FALLS    SUNNY     44  28  53 N13       29.83F
SALMON         CLOUDY    45  27  49 CALM      29.92S
BOISE            N/A     47  40  76 CALM      29.85R
SPOKANE        PTSUNNY   49  40  71 NE6       29.99R
$$

REGIONAL REPORTS...ALBERTA

CITY           SKY/WX    TMP DP  RH WIND       PRES   REMARKS
EDMONTON       SUNNY     48  32  53 S14       30.15R
CALGARY        CLOUDY    37  34  87 S13       30.13R WCI  29
LETHBRIDGE     PTSUNNY   39  36  87 S13       30.17R WCI  32
MEDICINE HAT   CLOUDY    45  37  76 VRB2      30.20R
WATERTON GATE    N/A     37  34  87 NE6         N/A
MILK RIVER       N/A     37  36  93 S9          N/A  WCI  31
ONEFOUR          N/A     41  34  75 N7          N/A
$$

REGIONAL REPORTS...SASKATCHEWAN

CITY           SKY/WX    TMP DP  RH WIND       PRES   REMARKS
REGINA         CLOUDY    48  18  29 E8        30.22S
SASKATOON      CLOUDY    48  25  40 SE8       30.26S
VAL MARIE        N/A     43  28  56 E5          N/A
ROCKGLEN         N/A     39  23  52 NE3         N/A
ASSINIBOIA       N/A     46  34  61 S5          N/A
$$




USA.gov is the U.S. government's official web portal to all federal, state and local government web resources and services.